Weather reports worldwide

Advertisment
Koivu-Mankkaa, Finland (2985): temperature & dewpoint: 18.06.2017 06:00:00 - 24.06.2017 06:00:00 (EEST)Koivu-Mankkaa, Finland (2985): wind speed: 18.06.2017 06:00:00 - 24.06.2017 06:00:00 (EEST)Koivu-Mankkaa, Finland (2985): wind direction: 18.06.2017 06:00:00 - 24.06.2017 06:00:00 (EEST)Koivu-Mankkaa, Finland (2985): reduced air pressure: 18.06.2017 06:00:00 - 24.06.2017 06:00:00 (EEST)Koivu-Mankkaa, Finland (2985): visibility: 18.06.2017 06:00:00 - 24.06.2017 06:00:00 (EEST)Koivu-Mankkaa, Finland (2985): precipitation: 18.06.2017 06:00:00 - 24.06.2017 06:00:00 (EEST)
Date & Time tt [°C] td [°C] ff [km/h] ff [kn] dd ppp [hPa] vv [km] rr [mm]
24.06.2017 06:00:00 8,5 8,5 4 2 SE 1006,1 23 0,0
24.06.2017 05:00:00 7,6 7,6 5 3 NW 1006,4 21 0,0
24.06.2017 04:00:00 7,3 7,2 6 3 WNW 1006,7 13 0,0
24.06.2017 03:00:00 7,1 6,9 4 2 W 1006,9 9 0,0
24.06.2017 02:00:00 7,8 7,4 5 3 WSW 1006,9 10 0,0
24.06.2017 01:00:00 9,4 8,3 3 1 SSW 1007,0 20 0,0
24.06.2017 00:00:00 10,8 8,7 4 2 W 1007,2 27 0,0
23.06.2017 23:00:00 11,5 8,8 6 3 WSW 1007,6 32 0,0
23.06.2017 22:00:00 12,0 8,7 5 3 SSW 1007,6 41 0,0
23.06.2017 21:00:00 12,9 8,5 8 4 SSW 1007,5 44 0,0
23.06.2017 20:00:00 12,6 8,4 9 5 S 1007,5 40 0,0
23.06.2017 19:00:00 15,0 7,3 12 7 SW 1007,2 43 0,0
23.06.2017 18:00:00 13,6 8,1 14 8 SSW 1007,3 42 0,0
23.06.2017 17:00:00 14,5 5,0 7 4 NNW 1007,2 35 0,0
23.06.2017 16:00:00 13,8 4,8 13 7 W 1007,3 33 0,0
23.06.2017 15:00:00 13,0 5,5 8 5 N 1007,5 35 0,0
23.06.2017 14:00:00 12,5 4,9 8 4 NW 1007,5 45 0,0
23.06.2017 13:00:00 11,9 3,7 17 9 NNW 1007,5 42 0,0
23.06.2017 12:00:00 10,9 4,6 20 11 NW 1007,4 44 0,0
23.06.2017 11:00:00 10,7 4,3 14 8 NNW 1007,2 48 0,0
23.06.2017 10:00:00 11,0 3,5 23 13 NNW 1007,1 34 0,0
23.06.2017 09:00:00 10,2 3,7 21 12 N 1006,7 39 0,0
23.06.2017 08:00:00 9,4 4,5 16 9 NNW 1006,5 39 0,0
23.06.2017 07:00:00 8,6 4,7 18 10 NW 1006,4 49 0,0
23.06.2017 06:00:00 7,6 4,6 16 8 NNW 1006,1 44 0,0
23.06.2017 05:00:00 7,1 4,8 11 6 NW 1005,9 40 0,0
23.06.2017 04:00:00 7,7 5,4 15 8 NW 1005,7 42 0,0
23.06.2017 03:00:00 8,6 5,7 17 9 NW 1005,4 50 0,0
23.06.2017 02:00:00 9,4 6,9 15 8 NW 1005,0 49 0,0
23.06.2017 01:00:00 9,5 6,7 12 7 WNW 1004,8 44 0,0
23.06.2017 00:00:00 10,4 7,2 10 6 WNW 1004,9 30 0,0
22.06.2017 23:00:00 11,4 7,2 14 7 NNW 1004,7 26 0,0
22.06.2017 22:00:00 12,3 9,7 4 2 WNW 1004,2 36 0,0
22.06.2017 21:00:00 13,6 9,4 5 3 NNE 1004,1 41 0,0
22.06.2017 20:00:00 14,3 9,5 9 5 S 1003,7 36 0,0
22.06.2017 19:00:00 13,3 8,8 10 5 S 1003,8 35 0,0
22.06.2017 18:00:00 13,9 8,6 5 3 SE 1004,0 27 0,0
22.06.2017 17:00:00 11,2 9,7 6 3 ESE 1004,3 30 0,6
22.06.2017 16:00:00 12,3 8,8 6 4 E 1004,4 14 0,0
22.06.2017 15:00:00 15,1 8,6 19 11 S 1003,7 32 0,0
22.06.2017 14:00:00 16,1 9,9 10 6 SW 1004,2 39 0,0
22.06.2017 13:00:00 11,8 8,1 13 7 W 1004,4 43 0,5
22.06.2017 12:00:00 15,7 7,1 23 13 WNW 1004,2 42 0,0
22.06.2017 11:00:00 15,3 7,4 25 13 WNW 1004,3 34 0,0
22.06.2017 10:00:00 13,8 7,4 26 14 WNW 1004,5 35 0,0
22.06.2017 09:00:00 13,5 8,5 19 10 WNW 1004,4 38 0,0
22.06.2017 08:00:00 11,9 8,0 20 11 W 1004,5 36 0,0
22.06.2017 07:00:00 10,7 7,8 19 11 W 1004,6 46 0,0
22.06.2017 06:00:00 10,0 7,5 16 9 W 1004,8 40 0,0
22.06.2017 05:00:00 9,1 7,1 16 8 W 1004,9 39 0,0
22.06.2017 04:00:00 9,0 6,8 14 7 W 1005,0 43 0,0
22.06.2017 03:00:00 9,7 6,7 14 7 W 1005,0 49 0,0
22.06.2017 02:00:00 10,7 6,9 15 8 W 1005,0 42 0,0
22.06.2017 01:00:00 11,1 7,2 15 8 W 1005,2 45 0,0
22.06.2017 00:00:00 11,6 7,6 15 8 W 1005,1 43 0,0
21.06.2017 23:00:00 12,7 6,9 13 7 WNW 1004,8 48 0,0
21.06.2017 22:00:00 13,6 8,1 19 10 WNW 1004,8 50 0,0
21.06.2017 21:00:00 14,3 9,2 16 8 WNW 1004,2 41 0,0
21.06.2017 20:00:00 14,0 9,3 19 10 WNW 1004,2 42 0,0
21.06.2017 19:00:00 12,2 10,0 15 8 W 1003,8 44 0,0
21.06.2017 18:00:00 11,3 8,9 15 8 NW 1003,4 41 0,2
21.06.2017 17:00:00 10,4 8,5 18 10 NW 1003,6 28 1,5
21.06.2017 16:00:00 10,7 8,3 31 17 NNW 1003,1 8 0,1
21.06.2017 15:00:00 16,5 7,0 26 14 WNW 1001,8 29 0,0
21.06.2017 14:00:00 15,1 6,2 21 12 W 1001,9 41 0,0
21.06.2017 13:00:00 15,5 6,4 24 13 WNW 1001,8 38 0,0
21.06.2017 12:00:00 13,9 6,4 23 12 W 1001,7 33 0,0
21.06.2017 11:00:00 14,5 5,9 22 12 WNW 1001,3 36 0,0
21.06.2017 10:00:00 13,4 5,9 29 15 W 1001,1 32 0,0
21.06.2017 09:00:00 12,9 6,5 25 13 W 1001,1 37 0,0
21.06.2017 08:00:00 11,7 6,9 22 12 WNW 1000,9 36 0,0
21.06.2017 07:00:00 10,8 7,0 21 12 W 1000,7 42 0,0
21.06.2017 06:00:00 9,9 6,6 18 10 W 1000,8 41 0,0
21.06.2017 05:00:00 9,8 6,6 18 10 W 1000,8 41 0,0
21.06.2017 04:00:00 9,9 6,6 19 10 W 1000,8 43 0,0
21.06.2017 03:00:00 10,4 6,6 18 10 W 1000,8 44 0,0
21.06.2017 02:00:00 10,8 6,7 20 11 W 1000,7 42 0,0
21.06.2017 01:00:00 10,8 7,3 18 10 W 1000,9 43 0,0
21.06.2017 00:00:00 11,0 8,0 13 7 W 1001,1 42 0,0
20.06.2017 23:00:00 11,6 8,3 18 10 WNW 1001,0 42 0,0
20.06.2017 22:00:00 12,6 8,6 22 12 WNW 1000,7 41 0,0
20.06.2017 21:00:00 12,8 8,7 27 14 WNW 1000,2 41 0,0
20.06.2017 20:00:00 13,2 8,6 23 13 WNW 999,4 34 0,0
20.06.2017 19:00:00 12,1 8,7 27 14 NNW 998,9 31 0,0
20.06.2017 18:00:00 13,1 9,0 28 15 NW 998,1 36 0,0
20.06.2017 17:00:00 14,0 10,3 34 19 NW 996,5 38 0,0
20.06.2017 16:00:00 17,2 10,5 25 14 W 995,2 34 0,0
20.06.2017 15:00:00 17,3 10,2 30 16 W 995,0 31 0,0
20.06.2017 14:00:00 16,4 12,5 15 8 W 995,6 34 0,0
20.06.2017 13:00:00 15,8 13,4 20 11 W 995,8 30 0,1
20.06.2017 12:00:00 12,6 12,3 16 9 SSW 996,5 15 0,0
20.06.2017 11:00:00 11,1 10,7 14 8 SE 997,7 19 0,1
20.06.2017 10:00:00 10,8 10,3 12 7 SE 999,1 13 0,0
20.06.2017 09:00:00 10,9 10,6 22 12 SSE 1000,2 17 2,9
20.06.2017 08:00:00 10,9 10,6 11 6 S 1003,2 3,3 1,7
20.06.2017 07:00:00 11,1 10,9 10 5 SE 1003,3 21 0,7
20.06.2017 06:00:00 10,8 10,5 10 5 SSW 1005,1 18 1,0
20.06.2017 05:00:00 11,3 8,7 9 5 WSW 1006,6 19 0,1
20.06.2017 04:00:00 10,7 7,9 6 4 W 1007,0 39 0,0
20.06.2017 03:00:00 10,8 7,8 8 5 SW 1007,8 43 0,0
20.06.2017 02:00:00 11,1 7,2 5 3 W 1008,6 40 0,0
20.06.2017 01:00:00 12,9 7,7 9 5 W 1009,0 42 0,0
20.06.2017 00:00:00 14,0 5,4 10 5 W 1009,2 39 0,0
19.06.2017 23:00:00 16,2 4,6 12 7 W 1009,4 40 0,0
19.06.2017 22:00:00 17,8 4,3 17 9 W 1009,5 40 0,0
19.06.2017 21:00:00 18,8 3,0 26 14 WNW 1009,5 37 0,0
19.06.2017 20:00:00 19,6 2,5 21 11 NW 1009,5 33 0,0
19.06.2017 19:00:00 20,8 4,2 22 12 WNW 1009,4 34 0,0
19.06.2017 18:00:00 21,1 4,5 24 13 WNW 1009,3 31 0,0
19.06.2017 17:00:00 21,2 4,3 22 12 WNW 1009,4 36 0,0
19.06.2017 16:00:00 21,1 5,2 25 14 NW 1009,5 34 0,0
19.06.2017 15:00:00 21,7 6,4 27 15 W 1009,5 32 0,0
19.06.2017 14:00:00 20,6 5,7 22 12 NW 1009,8 34 0,0
19.06.2017 13:00:00 19,5 7,5 18 10 W 1009,9 36 0,0
19.06.2017 12:00:00 18,0 8,6 17 9 W 1010,1 33 0,0
19.06.2017 11:00:00 17,4 7,9 18 10 WNW 1010,3 36 0,0
19.06.2017 10:00:00 18,3 8,1 19 11 WNW 1010,0 38 0,0
19.06.2017 09:00:00 17,3 9,4 16 9 WNW 1010,1 36 0,0
19.06.2017 08:00:00 16,7 10,9 11 6 W 1010,0 33 0,0
19.06.2017 07:00:00 15,5 11,2 11 6 WNW 1010,0 35 0,0
19.06.2017 06:00:00 15,1 11,2 10 5 W 1009,9 42 0,0
19.06.2017 05:00:00 15,2 11,1 11 6 WNW 1010,0 39 0,0
19.06.2017 04:00:00 15,3 11,2 8 5 WNW 1009,7 42 0,0
19.06.2017 03:00:00 15,7 11,5 10 5 WNW 1009,7 38 0,0
19.06.2017 02:00:00 16,1 12,1 13 7 W 1009,7 43 0,0
19.06.2017 01:00:00 16,2 12,7 14 8 W 1009,5 37 0,0
19.06.2017 00:00:00 16,9 13,0 14 8 W 1009,4 37 0,0
18.06.2017 23:00:00 17,6 13,1 13 7 W 1008,8 37 0,0
18.06.2017 22:00:00 18,5 13,0 14 8 W 1008,4 38 0,0
18.06.2017 21:00:00 19,3 13,3 15 8 W 1008,3 38 0,0
18.06.2017 20:00:00 19,3 14,2 17 9 W 1008,3 33 0,0
18.06.2017 19:00:00 18,3 14,2 16 9 WSW 1008,4 38 0,0
18.06.2017 18:00:00 17,4 13,6 15 8 SW 1008,6 35 0,0
18.06.2017 17:00:00 17,1 12,7 24 13 SW 1008,8 29 0,0
18.06.2017 16:00:00 18,7 12,3 18 10 SSW 1008,7 32 0,0
18.06.2017 15:00:00 20,2 14,2 20 11 SW 1009,8 32 0,0
18.06.2017 14:00:00 18,8 13,7 23 12 SW 1010,5 39 0,0
18.06.2017 13:00:00 18,6 13,8 24 13 SW 1010,7 32 0,0
18.06.2017 12:00:00 17,7 13,8 13 7 SSW 1011,0 33 0,0
18.06.2017 11:00:00 17,6 13,9 16 9 SSW 1011,3 30 0,0
18.06.2017 10:00:00 17,4 13,5 15 8 SW 1011,7 33 0,0
18.06.2017 09:00:00 17,1 13,0 16 8 SSW 1012,0 40 0,0
18.06.2017 08:00:00 16,7 13,2 13 7 SSW 1012,3 31 0,0
18.06.2017 07:00:00 15,7 11,6 13 7 SSW 1012,8 37 0,0
18.06.2017 06:00:00 14,4 10,5 11 6 SW 1013,5 36 0,0

tt = temperature
td = dewpoint
ff = wind speed
dd = wind direction
ppp = reduced air pressure
vv = visibility
rr = precipitation

Next stations